Time,TemperatureF,DewpointF,PressureIn,WindDirection,WindDirectionDegrees,WindSpeedMPH,WindSpeedGustMPH,Humidity,HourlyPrecipIn,Conditions,Clouds,dailyrainin,SolarRadiationWatts/m^2,SoftwareType,DateUTC
2013-09-21 00:00:00,68.0,65.0,-100.00,West,270,0.0,-999.0,91,0.06,,,-99.99,0.000000,,2013-09-21 04:00:00,
2013-09-21 00:44:00,68.0,65.0,-100.00,West,270,0.0,-999.0,91,0.06,,,-99.99,0.000000,,2013-09-21 04:44:00,
2013-09-21 00:54:00,68.0,65.0,-100.00,West,270,0.0,-999.0,91,0.06,,,-99.99,0.000000,,2013-09-21 04:54:00,
2013-09-21 01:00:00,66.0,63.0,-100.00,NW,315,0.0,-999.0,91,0.03,,,-99.99,0.000000,,2013-09-21 05:00:00,
2013-09-21 01:44:00,66.0,63.0,-100.00,NW,315,0.0,-999.0,91,0.03,,,-99.99,0.000000,,2013-09-21 05:44:00,
2013-09-21 01:53:00,66.0,63.0,-100.00,NW,315,0.0,-999.0,91,0.03,,,-99.99,0.000000,,2013-09-21 05:53:00,
2013-09-21 02:00:00,65.0,63.0,-100.00,WSW,247,0.0,-999.0,91,0.04,,,-99.99,0.000000,,2013-09-21 06:00:00,
2013-09-21 02:42:00,65.0,63.0,-100.00,WSW,247,0.0,-999.0,91,0.04,,,-99.99,0.000000,,2013-09-21 06:42:00,
2013-09-21 02:53:00,65.0,63.0,-100.00,WSW,247,0.0,-999.0,91,0.04,,,-99.99,0.000000,,2013-09-21 06:53:00,
2013-09-21 03:00:00,64.0,62.0,-100.00,WSW,247,0.0,-999.0,91,0.02,,,-99.99,0.000000,,2013-09-21 07:00:00,
2013-09-21 03:42:00,64.0,62.0,-100.00,WSW,247,0.0,-999.0,91,0.02,,,-99.99,0.000000,,2013-09-21 07:42:00,
2013-09-21 03:52:00,64.0,62.0,-100.00,WSW,247,0.0,-999.0,91,0.02,,,-99.99,0.000000,,2013-09-21 07:52:00,
2013-09-21 04:00:00,64.0,62.0,-100.00,West,270,0.0,-999.0,91,-99.99,,,-99.99,0.000000,,2013-09-21 08:00:00,
2013-09-21 04:42:00,64.0,62.0,-100.00,West,270,0.0,-999.0,91,-99.99,,,-99.99,0.000000,,2013-09-21 08:42:00,
2013-09-21 04:52:00,64.0,62.0,-100.00,West,270,0.0,-999.0,91,-99.99,,,-99.99,0.000000,,2013-09-21 08:52:00,
2013-09-21 05:00:00,63.0,59.0,-100.00,NW,315,0.0,-999.0,88,-99.99,,,-99.99,0.000000,,2013-09-21 09:00:00,
2013-09-21 05:43:00,63.0,59.0,-100.00,NW,315,0.0,-999.0,88,-99.99,,,-99.99,0.000000,,2013-09-21 09:43:00,
2013-09-21 05:54:00,63.0,59.0,-100.00,NW,315,0.0,-999.0,88,-99.99,,,-99.99,0.000000,,2013-09-21 09:54:00,
2013-09-21 06:00:00,61.0,57.0,-100.00,NW,315,0.0,-999.0,86,-99.99,,,-99.99,0.000000,,2013-09-21 10:00:00,
2013-09-21 06:42:00,61.0,57.0,-100.00,NW,315,0.0,-999.0,86,-99.99,,,-99.99,0.000000,,2013-09-21 10:42:00,
2013-09-21 06:53:00,61.0,57.0,-100.00,NW,315,0.0,-999.0,86,-99.99,,,-99.99,0.000000,,2013-09-21 10:53:00,
2013-09-21 07:00:00,60.0,57.0,-100.00,NW,315,0.0,-999.0,87,-99.99,,,-99.99,0.000000,,2013-09-21 11:00:00,
2013-09-21 07:42:00,60.0,57.0,-100.00,NW,315,0.0,-999.0,87,-99.99,,,-99.99,0.000000,,2013-09-21 11:42:00,
2013-09-21 07:52:00,60.0,57.0,-100.00,NW,315,0.0,-999.0,87,-99.99,,,-99.99,0.000000,,2013-09-21 11:52:00,
2013-09-21 08:00:00,59.0,56.0,-100.00,WNW,292,0.0,-999.0,88,-99.99,,,-99.99,2.320000,,2013-09-21 12:00:00,
2013-09-21 08:42:00,59.0,56.0,-100.00,WNW,292,0.0,-999.0,88,-99.99,,,-99.99,2.320000,,2013-09-21 12:42:00,
2013-09-21 08:52:00,59.0,56.0,-100.00,WNW,292,0.0,-999.0,88,-99.99,,,-99.99,2.320000,,2013-09-21 12:52:00,
2013-09-21 09:00:00,59.0,55.0,-100.00,WNW,292,0.0,-999.0,89,-99.99,,,-99.99,32.480000,,2013-09-21 13:00:00,
2013-09-21 09:42:00,59.0,55.0,-100.00,WNW,292,0.0,-999.0,89,-99.99,,,-99.99,32.480000,,2013-09-21 13:42:00,
2013-09-21 09:53:00,59.0,55.0,-100.00,WNW,292,0.0,-999.0,89,-99.99,,,-99.99,32.480000,,2013-09-21 13:53:00,
2013-09-21 10:00:00,60.0,56.0,-100.00,NW,315,0.0,-999.0,86,-99.99,,,-99.99,113.680000,,2013-09-21 14:00:00,
2013-09-21 10:42:00,60.0,56.0,-100.00,NW,315,0.0,-999.0,86,-99.99,,,-99.99,113.680000,,2013-09-21 14:42:00,
2013-09-21 10:52:00,60.0,56.0,-100.00,NW,315,0.0,-999.0,86,-99.99,,,-99.99,113.680000,,2013-09-21 14:52:00,
2013-09-21 11:00:00,61.0,55.0,-100.00,NW,315,1.0,-999.0,79,-99.99,,,-99.99,255.199997,,2013-09-21 15:00:00,
2013-09-21 11:45:00,61.0,55.0,-100.00,NW,315,1.0,-999.0,79,-99.99,,,-99.99,255.199997,,2013-09-21 15:45:00,
2013-09-21 11:55:00,61.0,55.0,-100.00,NW,315,1.0,-999.0,79,-99.99,,,-99.99,255.199997,,2013-09-21 15:55:00,
2013-09-21 12:00:00,64.0,55.0,-100.00,NW,315,1.0,-999.0,72,-99.99,,,-99.99,348.000000,,2013-09-21 16:00:00,
2013-09-21 12:43:00,64.0,55.0,-100.00,NW,315,1.0,-999.0,72,-99.99,,,-99.99,348.000000,,2013-09-21 16:43:00,
2013-09-21 12:54:00,64.0,55.0,-100.00,NW,315,1.0,-999.0,72,-99.99,,,-99.99,348.000000,,2013-09-21 16:54:00,
2013-09-21 13:00:00,67.0,54.0,-100.00,SW,225,6.0,-999.0,63,-99.99,,,-99.99,495.320007,,2013-09-21 17:00:00,
2013-09-21 13:43:00,67.0,54.0,-100.00,SW,225,6.0,-999.0,63,-99.99,,,-99.99,495.320007,,2013-09-21 17:43:00,
2013-09-21 13:52:00,67.0,54.0,-100.00,SW,225,6.0,-999.0,63,-99.99,,,-99.99,495.320007,,2013-09-21 17:52:00,
2013-09-21 14:00:00,67.0,52.0,-100.00,SW,225,11.0,-999.0,58,-99.99,,,-99.99,518.520020,,2013-09-21 18:00:00,
2013-09-21 14:42:00,67.0,52.0,-100.00,SW,225,11.0,-999.0,58,-99.99,,,-99.99,518.520020,,2013-09-21 18:42:00,
2013-09-21 14:52:00,67.0,52.0,-100.00,SW,225,11.0,-999.0,58,-99.99,,,-99.99,518.520020,,2013-09-21 18:52:00,
2013-09-21 15:00:00,67.0,50.0,-100.00,South,180,10.0,-999.0,54,-99.99,,,-99.99,448.920013,,2013-09-21 19:00:00,
2013-09-21 15:42:00,67.0,50.0,-100.00,South,180,10.0,-999.0,54,-99.99,,,-99.99,448.920013,,2013-09-21 19:42:00,
2013-09-21 15:52:00,67.0,50.0,-100.00,South,180,10.0,-999.0,54,-99.99,,,-99.99,448.920013,,2013-09-21 19:52:00,
2013-09-21 16:00:00,67.0,47.0,-100.00,WNW,292,10.0,-999.0,49,-99.99,,,-99.99,433.839996,,2013-09-21 20:00:00,
2013-09-21 16:43:00,67.0,47.0,-100.00,WNW,292,10.0,-999.0,49,-99.99,,,-99.99,433.839996,,2013-09-21 20:43:00,
2013-09-21 16:52:00,67.0,47.0,-100.00,WNW,292,10.0,-999.0,49,-99.99,,,-99.99,433.839996,,2013-09-21 20:52:00,
2013-09-21 17:00:00,66.0,46.0,-100.00,NW,315,10.0,-999.0,49,-99.99,,,-99.99,321.320007,,2013-09-21 21:00:00,
2013-09-21 17:45:00,66.0,46.0,-100.00,NW,315,10.0,-999.0,49,-99.99,,,-99.99,321.320007,,2013-09-21 21:45:00,
2013-09-21 17:54:00,66.0,46.0,-100.00,NW,315,10.0,-999.0,49,-99.99,,,-99.99,321.320007,,2013-09-21 21:54:00,
2013-09-21 18:00:00,65.0,46.0,-100.00,WNW,292,9.0,-999.0,49,-99.99,,,-99.99,180.960007,,2013-09-21 22:00:00,
2013-09-21 18:43:00,65.0,46.0,-100.00,WNW,292,9.0,-999.0,49,-99.99,,,-99.99,180.960007,,2013-09-21 22:43:00,
2013-09-21 18:53:00,65.0,46.0,-100.00,WNW,292,9.0,-999.0,49,-99.99,,,-99.99,180.960007,,2013-09-21 22:53:00,
2013-09-21 19:00:00,63.0,45.0,-100.00,WNW,292,9.0,-999.0,51,-99.99,,,-99.99,112.519997,,2013-09-21 23:00:00,
2013-09-21 19:42:00,63.0,45.0,-100.00,WNW,292,9.0,-999.0,51,-99.99,,,-99.99,112.519997,,2013-09-21 23:42:00,
2013-09-21 19:53:00,63.0,45.0,-100.00,WNW,292,9.0,-999.0,51,-99.99,,,-99.99,112.519997,,2013-09-21 23:53:00,
2013-09-21 20:00:00,60.0,46.0,-100.00,NW,315,6.0,-999.0,59,-99.99,,,-99.99,8.120000,,2013-09-22 00:00:00,
2013-09-21 20:43:00,60.0,46.0,-100.00,NW,315,6.0,-999.0,59,-99.99,,,-99.99,8.120000,,2013-09-22 00:43:00,
2013-09-21 20:52:00,60.0,46.0,-100.00,NW,315,6.0,-999.0,59,-99.99,,,-99.99,8.120000,,2013-09-22 00:52:00,
2013-09-21 21:00:00,59.0,46.0,-100.00,NW,315,6.0,-999.0,64,-99.99,,,-99.99,0.000000,,2013-09-22 01:00:00,
2013-09-21 21:42:00,59.0,46.0,-100.00,NW,315,6.0,-999.0,64,-99.99,,,-99.99,0.000000,,2013-09-22 01:42:00,
2013-09-21 21:52:00,59.0,46.0,-100.00,NW,315,6.0,-999.0,64,-99.99,,,-99.99,0.000000,,2013-09-22 01:52:00,
2013-09-21 22:00:00,56.0,47.0,-100.00,NW,315,5.0,-999.0,69,-99.99,,,-99.99,0.000000,,2013-09-22 02:00:00,
2013-09-21 22:42:00,56.0,47.0,-100.00,NW,315,5.0,-999.0,69,-99.99,,,-99.99,0.000000,,2013-09-22 02:42:00,
2013-09-21 22:52:00,56.0,47.0,-100.00,NW,315,5.0,-999.0,69,-99.99,,,-99.99,0.000000,,2013-09-22 02:52:00,
2013-09-21 23:00:00,-999.0,-99.9,-100.00,NW,315,2.0,-999.0,-999,-99.99,,,-99.99,,,2013-09-22 03:00:00,
2013-09-21 23:45:00,53.0,47.0,-100.00,NW,315,2.0,-999.0,79,-99.99,,,-99.99,0.000000,,2013-09-22 03:45:00,
2013-09-21 23:54:00,53.0,47.0,-100.00,NW,315,2.0,-999.0,79,-99.99,,,-99.99,0.000000,,2013-09-22 03:54:00,